Find Kosmos-1481

NORAD ID: 14182 Int'l Des: 1983-070 Owner: PVO Country: SU operational
MEOELLIPTICALHEO_ELLIPTICALSEMI_SYNC

实时位置

正在加载3D地球...

关于 Kosmos-1481

正在加载描述...

即将过境

Passes for default location (London). Set your location on the main map for personalized predictions.

高度历史

Loading altitude history...

两行轨道根数

1 14182U 83070A 26102.52627366 -.00000177 00000-0 00000-0 0 9998
2 14182 70.6153 255.5994 5611534 230.9370 64.2089 2.03584040238769
Epoch: Apr 12, 2026 • Age: 62 hours

当前状态

高度 34603.2 km
速度 2.07 km/s
星下点 44.43°N, 26.14°E
发射日期 Jul 8, 1983
运行时间 42.7 years
类型 other

技术详情

分类 Payload
质量 1250.00 kg
干质量 1150.00 kg
总质量 1250.00 kg
长度 4.00 m
直径 2.00 m
跨度 5.00 m
形状 Cyl + 2 Pan
制造商 NPOL/KOMET
平台类型 Oko
阶段状态 In Orbit
所有者/国家 PVO/SU

Most Searched